[[{"header":{"parameterUnit":"m.s-1","parameterCategory":2,"la1":30.2991,"la2":30.254,"lo1":-89.0895,"lo2":-89.0444,"dy":0.0017,"dx":0.0017,"nx":28,"ny":28,"refTime":"2024-03-30T03:00:00:Z","depth":"0","parameterNumber":2,"parameterNumberName":"U-component_of_CURRENTS"},"data":[0,0,0,0,0,0,0,0,0,0,0,0,0,0,0,0,0,0,0,0,0,0,0,0,0,0,0,0,0,0,0,0,0,0,0,0,0,0,0,0,0,0,0,0,0,0,0,0,0,0,0,0,0,0,0,0,0,0,0.251,0.251,0,0.2447,0.2446,0.2446,0.2392,0.2391,0.2391,0.2391,0.2236,0.2233,0.2229,0,0,0,0,0,0,0,0,0,0,0,0,0,0.2593,0.2592,0.251,0.251,0.2509,0.2448,0.2446,0.2445,0.2392,0.2391,0.2391,0.239,0.2237,0.2233,0.2228,0,0,0,0,0,0,0,0,0,0,0,0,0,0.2544,0.2591,0.251,0.2477,0.2474,0.2448,0.2446,0.2445,0.2392,0.2391,0.2391,0.239,0.2239,0.2233,0.2228,0.2203,0,0,0.221,0.2208,0,0,0,0,0,0,0,0,0.2547,0.254,0.2483,0.2479,0.2476,0.2429,0.2419,0.236,0.2392,0.242,0.2391,0.239,0.2295,0.2284,0.2271,0.2196,0.2189,0.221,0.2206,0.2204,0.2202,0,0,0,0,0,0,0,0.255,0.2543,0.2482,0.2482,0.2478,0.2469,0.2461,0.2408,0.2357,0.2417,0.2414,0.2412,0.2292,0.2277,0.2267,0.2187,0.221,0.2205,0.2202,0.2199,0.2108,0.2109,0,0,0,0,0,0,0.2563,0.2546,0.2485,0.2481,0.2514,0.2468,0.2459,0.2442,0.2359,0.2348,0.2412,0.241,0.2287,0.2273,0.2261,0.2225,0.2204,0.2199,0.2195,0.2107,0.2109,0.211,0,0,0,0,0,0,0.2565,0.2558,0.2487,0.2515,0.2506,0.2467,0.2449,0.2441,0.2427,0.2357,0.2343,0.2406,0.2286,0.2269,0.2215,0.2219,0.2196,0.2191,0.2106,0.2108,0.2109,0.2154,0,0,0,0,0,0,0.2567,0.2559,0.2555,0.2516,0.2505,0.2471,0.245,0.2441,0.2428,0.2423,0.2347,0.2332,0.2284,0.2224,0.2209,0.221,0.2187,0.2105,0.2107,0.2109,0.2151,0.2157,0.2161,0,0,0,0,0,0.257,0.2556,0.2554,0.2548,0.2499,0.2472,0.2465,0.2434,0.2428,0.242,0.2372,0.2335,0.2226,0.2219,0.2202,0.2202,0.2104,0.2106,0.2108,0.2149,0.2155,0.2161,0,0,0,0,0,0,0.2572,0.2548,0.2546,0.252,0.2504,0.2464,0.245,0.2441,0.2399,0.239,0.2331,0.2312,0.2273,0.2236,0.223,0.2187,0.2166,0.2165,0.2202,0.2208,0.2213,0.2233,0.2182,0,0,0,0,0,0.2579,0.2566,0.2545,0.2523,0.2517,0.2491,0.2478,0.2461,0.2421,0.2403,0.2358,0.2312,0.2271,0.2238,0.2197,0.2158,0.2159,0.2155,0.216,0.2165,0.2173,0.2197,0.2205,0.2117,0.2117,0.2117,0,0,0.2571,0.2559,0.2549,0.2526,0.2506,0.2488,0.248,0.2458,0.2442,0.2391,0.2352,0.2324,0.2267,0.2231,0.2211,0.2195,0.219,0.2167,0.2171,0.2177,0.22,0.2209,0.2216,0.2118,0.2118,0.2118,0,0,0.2543,0.2542,0.2521,0.2514,0.2498,0.2486,0.2487,0.2459,0.2446,0.2414,0.2382,0.2366,0.2289,0.2263,0.2236,0.2248,0.2222,0.2234,0.226,0.2284,0.2292,0.2298,0.2309,0.2316,0.2229,0.2229,0.2229,0,0.2529,0.2504,0.2511,0.2492,0.248,0.2489,0.2462,0.2456,0.2418,0.2405,0.2405,0.2346,0.231,0.2272,0.2284,0.2259,0.2263,0.2236,0.2291,0.2298,0.2304,0.2313,0.232,0.2232,0.2231,0.2231,0.2231,0,0.2486,0.2473,0.2459,0.2443,0.2438,0.2416,0.2418,0.2416,0.2416,0.2408,0.2392,0.2369,0.2334,0.2333,0.2306,0.2326,0.2312,0.2301,0.2275,0.2316,0.2322,0.2329,0.2235,0.2234,0.2234,0.2233,0,0,0.2405,0.2425,0.2415,0.2403,0.2409,0.2387,0.2389,0.2375,0.2368,0.2377,0.2369,0.2352,0.2368,0.2344,0.233,0.2361,0.2416,0.2353,0.2353,0.2363,0.2462,0.2389,0.239,0.2413,0.2414,0.2416,0.2448,0,0.2354,0.2323,0.2348,0.231,0.2287,0.2317,0.2313,0.2315,0.2329,0.2334,0.2357,0.2346,0.2362,0.2358,0.2395,0.2409,0.2437,0.2408,0.2422,0.2422,0.2353,0.2396,0.2259,0.2271,0.2455,0.2456,0.2457,0,0.2277,0.2273,0.2238,0.224,0.2231,0.2224,0.2221,0.2223,0.2257,0.2272,0.2303,0.2324,0.237,0.2388,0.2454,0.2433,0.2457,0.2479,0.248,0.2402,0.2363,0.2261,0.2276,0.2227,0.2467,0.2466,0.2465,0,0.2187,0.2178,0.2152,0.215,0.2166,0.2158,0.2169,0.2196,0.2201,0.2249,0.227,0.232,0.235,0.2409,0.247,0.2464,0.2546,0.2533,0.2488,0.2482,0.2363,0.2343,0.233,0.2586,0.2586,0.2585,0.2585,0,0.2103,0.2071,0.2111,0.2092,0.2061,0.2095,0.2079,0.2103,0.2151,0.2169,0.224,0.2272,0.2364,0.242,0.2473,0.2503,0.2547,0.2504,0.2491,0.2373,0.2355,0.2303,0.2284,0.2587,0.2586,0.2586,0.2586,0,0.1997,0.2026,0.1991,0.2013,0.2018,0.1995,0.2032,0.203,0.209,0.2128,0.215,0.2242,0.2318,0.2394,0.2483,0.2486,0.2453,0.2527,0.2376,0.2345,0.2233,0.2221,0.2115,0.2065,0.2476,0.2474,0.2473,0,0.1942,0.1917,0.1928,0.1919,0.193,0.1924,0.1928,0.1987,0.2009,0.211,0.2127,0.2212,0.227,0.2361,0.2384,0.2436,0.2393,0.2317,0.2281,0.2216,0.2194,0.2124,0.2085,0.2143,0.2139,0.2136,0.2134,0,0.1841,0.185,0.1839,0.1829,0.1826,0.1826,0.1851,0.1861,0.195,0.1996,0.2069,0.2127,0.2207,0.2196,0.2244,0.2258,0.218,0.2251,0.2226,0.197,0.1849,0.1797,0.2135,0.2105,0.2108,0.211,0.2112,0.2113,0.1771,0.1746,0.175,0.1729,0.1731,0.1735,0.1727,0.1779,0.1814,0.1887,0.1976,0.2022,0.2038,0.2085,0.208,0.1961,0.1999,0.1888,0.1891,0.1837,0.174,0.201,0.1939,0.1941,0.1942,0.1944,0.1945,0,0.1681,0.1676,0.1654,0.1641,0.1623,0.1655,0.1677,0.1678,0.1711,0.1781,0.1842,0.1831,0.1803,0.1803,0.1712,0.1622,0.1562,0.1568,0.1449,0.1444,0.1718,0.1655,0.1466,0.1466,0.1466,0.1466,0.1466,0.1466,0.1639,0.16,0.1594,0.1546,0.1542,0.152,0.1526,0.1544,0.1578,0.1576,0.1564,0.1588,0.1608,0.1541,0.1422,0.1378,0.1293,0.1182,0.1252,0.1457,0.1488,0.1517,0.1455,0.1227,0.1227,0.0892,0.089,0.0888]},{"header":{"parameterUnit":"m.s-1","parameterCategory":2,"la1":30.2991,"la2":30.254,"lo1":-89.0895,"lo2":-89.0444,"dy":0.0017,"dx":0.0017,"nx":28,"ny":28,"refTime":"2024-03-30T03:00:00:Z","depth":"0","parameterNumber":3,"parameterNumberName":"V-component_of_CURRENTS"},"data":[0,0,0,0,0,0,0,0,0,0,0,0,0,0,0,0,0,0,0,0,0,0,0,0,0,0,0,0,0,0,0,0,0,0,0,0,0,0,0,0,0,0,0,0,0,0,0,0,0,0,0,0,0,0,0,0,0,0,0.0305,0.0306,0,0.0323,0.0324,0.0324,0.0324,0.0324,0.0323,0.0323,0.0281,0.028,0.0279,0,0,0,0,0,0,0,0,0,0,0,0,0,0.027,0.0271,0.0305,0.0306,0.0306,0.0323,0.0324,0.0324,0.0324,0.0324,0.0323,0.0323,0.0281,0.028,0.0279,0,0,0,0,0,0,0,0,0,0,0,0,0,0.0286,0.0271,0.0305,0.0308,0.0309,0.0323,0.0324,0.0324,0.0324,0.0324,0.0323,0.0323,0.0281,0.028,0.0279,0.0276,0,0,0.0274,0.0274,0,0,0,0,0,0,0,0,0.0285,0.0287,0.0308,0.0308,0.0309,0.0321,0.0296,0.0305,0.0324,0.0318,0.0323,0.0323,0.0289,0.0287,0.0292,0.0274,0.0272,0.0274,0.0273,0.0273,0.0272,0,0,0,0,0,0,0,0.0284,0.0287,0.0312,0.0308,0.0309,0.0308,0.031,0.0298,0.0304,0.0318,0.0318,0.0321,0.0289,0.0293,0.029,0.0272,0.0274,0.0273,0.0272,0.0271,0.0252,0.0253,0,0,0,0,0,0,0.0283,0.0286,0.0312,0.0313,0.0296,0.0309,0.0311,0.0317,0.0305,0.0304,0.0321,0.0321,0.0296,0.0292,0.0289,0.0292,0.0273,0.0271,0.0271,0.0252,0.0253,0.0253,0,0,0,0,0,0,0.0282,0.0285,0.0311,0.03,0.0303,0.031,0.0317,0.0318,0.0324,0.0308,0.0305,0.0326,0.0295,0.0291,0.0281,0.029,0.0271,0.0269,0.0252,0.0252,0.0253,0.0294,0,0,0,0,0,0,0.0281,0.0285,0.029,0.03,0.0303,0.0326,0.0317,0.0318,0.0326,0.0326,0.0311,0.0307,0.0295,0.0283,0.028,0.0288,0.0268,0.0251,0.0252,0.0253,0.0292,0.0296,0.0299,0,0,0,0,0,0.028,0.0294,0.029,0.0294,0.031,0.0326,0.0329,0.0332,0.0326,0.0335,0.0322,0.0308,0.0285,0.0282,0.0278,0.0286,0.0251,0.0252,0.0252,0.0291,0.0295,0.0299,0,0,0,0,0,0,0.0284,0.0295,0.0292,0.0309,0.0317,0.0327,0.0335,0.0335,0.0333,0.0329,0.0311,0.0306,0.0301,0.0287,0.0285,0.0282,0.0266,0.0266,0.0296,0.03,0.0304,0.0323,0.0267,0,0,0,0,0,0.0286,0.0297,0.0306,0.0318,0.0323,0.0327,0.0334,0.0336,0.0336,0.0336,0.0327,0.0313,0.0302,0.0296,0.0285,0.0282,0.0275,0.0284,0.0288,0.0291,0.0304,0.031,0.0315,0.0255,0.0255,0.0255,0,0,0.0289,0.0298,0.0303,0.0319,0.0324,0.0342,0.0331,0.0344,0.0357,0.0329,0.0341,0.0324,0.0303,0.0303,0.03,0.0292,0.03,0.0292,0.0295,0.0306,0.0311,0.0317,0.0323,0.0256,0.0256,0.0256,0,0,0.0308,0.031,0.0327,0.0335,0.0347,0.0353,0.0357,0.0368,0.0371,0.0377,0.0359,0.0354,0.0337,0.0332,0.0323,0.0339,0.0318,0.0328,0.0362,0.0367,0.0373,0.0377,0.0361,0.0364,0.033,0.033,0.033,0,0.0308,0.0334,0.0334,0.0353,0.0365,0.036,0.0382,0.0386,0.0393,0.0397,0.0385,0.0377,0.0356,0.0362,0.0364,0.0349,0.0339,0.0348,0.0373,0.0378,0.0382,0.0364,0.0367,0.0332,0.0332,0.0332,0.0332,0,0.0344,0.036,0.0371,0.0393,0.0406,0.0423,0.043,0.044,0.0438,0.044,0.0447,0.0427,0.0426,0.0413,0.039,0.0407,0.0386,0.0377,0.0366,0.0391,0.037,0.0372,0.0335,0.0335,0.0334,0.0333,0,0,0.0353,0.0389,0.0392,0.0409,0.0428,0.0444,0.0464,0.0484,0.0503,0.0499,0.0527,0.0502,0.0494,0.0485,0.0461,0.0461,0.0467,0.0431,0.043,0.042,0.0464,0.0438,0.0437,0.0463,0.0464,0.0464,0.0433,0,0.0379,0.0423,0.0436,0.0475,0.0496,0.05,0.0524,0.0537,0.0543,0.0568,0.055,0.0564,0.052,0.0524,0.0517,0.0485,0.0477,0.0476,0.0438,0.0436,0.0415,0.0441,0.0455,0.0428,0.0434,0.0435,0.0435,0,0.0409,0.0437,0.0481,0.0519,0.0529,0.0552,0.059,0.0611,0.0633,0.0639,0.0648,0.0638,0.0637,0.0602,0.0566,0.0566,0.052,0.049,0.0488,0.0455,0.0415,0.0407,0.0432,0.0375,0.0438,0.0438,0.0438,0,0.0422,0.0466,0.0504,0.0517,0.056,0.058,0.0604,0.0631,0.0662,0.0692,0.0722,0.071,0.0718,0.0672,0.0601,0.0587,0.056,0.0533,0.0465,0.0461,0.0463,0.0459,0.0438,0.0514,0.0514,0.0514,0.0515,0,0.0445,0.0474,0.0513,0.0534,0.0584,0.0602,0.0658,0.0678,0.0724,0.0779,0.0764,0.0805,0.0738,0.0712,0.0635,0.0558,0.0585,0.048,0.0461,0.0475,0.0472,0.0414,0.0377,0.0513,0.0513,0.0514,0.0514,0,0.0456,0.048,0.0526,0.0574,0.0592,0.0628,0.0697,0.074,0.0777,0.0854,0.0872,0.0879,0.0847,0.0767,0.0691,0.0606,0.0502,0.0496,0.0504,0.0486,0.0362,0.0327,0.0291,0.0274,0.0418,0.0417,0.0417,0,0.0471,0.0494,0.0554,0.0586,0.061,0.0666,0.0712,0.0762,0.0817,0.0905,0.0949,0.0944,0.0959,0.0828,0.0685,0.0553,0.0489,0.0459,0.0438,0.0368,0.0315,0.0298,0.0286,0.0447,0.0446,0.0446,0.0446,0,0.0497,0.0514,0.0553,0.0614,0.0665,0.0733,0.0802,0.0856,0.0933,0.1012,0.1097,0.1118,0.0999,0.0877,0.0682,0.0585,0.0432,0.0449,0.0391,0.0352,0.0321,0.0292,0.0434,0.0444,0.0444,0.0444,0.0444,0.0444,0.0516,0.0543,0.0589,0.0647,0.0708,0.0792,0.0858,0.0951,0.1061,0.1192,0.1194,0.1246,0.1051,0.0796,0.0653,0.0404,0.0411,0.0332,0.0297,0.0287,0.0273,0.0397,0.0376,0.0376,0.0376,0.0376,0.0375,0,0.0536,0.0565,0.062,0.0694,0.0761,0.0794,0.0914,0.0999,0.1144,0.1256,0.134,0.1261,0.104,0.079,0.0452,0.0289,0.0246,0.0204,0.0195,0.0192,0.0317,0.032,0.0271,0.0271,0.0271,0.0271,0.0272,0.0272,0.0549,0.059,0.0614,0.0717,0.0776,0.0885,0.0958,0.1102,0.1205,0.1349,0.1377,0.1364,0.1168,0.0605,0.0255,0.0178,0.0087,0.0057,0.0012,0.01,0.011,0.0119,0.0114,0.0023,0.0023,-0.0073,-0.0074,-0.0075]}],[{"header":{"parameterUnit":"m.s-1","parameterCategory":2,"la1":30.2991,"la2":30.254,"lo1":-89.0895,"lo2":-89.0444,"dy":0.0017,"dx":0.0017,"nx":28,"ny":28,"refTime":"2024-03-30T03:00:00:Z","depth":"2","parameterNumber":2,"parameterNumberName":"U-component_of_CURRENTS"},"data":[0,0,0,0,0,0,0,0,0,0,0,0,0,0,0,0,0,0,0,0,0,0,0,0,0,0,0,0,0,0,0,0,0,0,0,0,0,0,0,0,0,0,0,0,0,0,0,0,0,0,0,0,0,0,0,0,0,0,0.1784,0.1784,0,0.178,0.178,0.178,0.1782,0.1782,0.1782,0.1783,0.1766,0.1766,0.1765,0,0,0,0,0,0,0,0,0,0,0,0,0,0.1787,0.1787,0.1784,0.1784,0.1784,0.178,0.178,0.178,0.1782,0.1782,0.1783,0.1783,0.1767,0.1766,0.1765,0,0,0,0,0,0,0,0,0,0,0,0,0,0.1784,0.1787,0.1784,0.1785,0.1785,0.178,0.178,0.178,0.1782,0.1782,0.1783,0.1783,0.1767,0.1766,0.1765,0.1755,0,0,0.1762,0.1762,0,0,0,0,0,0,0,0,0.1784,0.1784,0.1785,0.1785,0.1785,0.1782,0.1775,0.1771,0.1782,0.1783,0.1783,0.1783,0.1771,0.177,0.1768,0.1754,0.1753,0.1762,0.1762,0.1762,0.1761,0,0,0,0,0,0,0,0.1784,0.1784,0.1782,0.1785,0.1785,0.1783,0.1783,0.1774,0.1775,0.1783,0.1783,0.1783,0.1771,0.1769,0.1767,0.1753,0.1762,0.1762,0.1761,0.1761,0.1776,0.1777,0,0,0,0,0,0,0.1786,0.1784,0.1782,0.1782,0.1786,0.1783,0.1783,0.1782,0.1775,0.1774,0.1783,0.1783,0.177,0.1768,0.1767,0.1791,0.1762,0.1761,0.176,0.1775,0.1776,0.1777,0,0,0,0,0,0,0.1786,0.1786,0.1782,0.1783,0.1783,0.1783,0.1782,0.1782,0.1799,0.1776,0.1775,0.1802,0.177,0.1768,0.1774,0.1789,0.176,0.1759,0.1774,0.1775,0.1776,0.1815,0,0,0,0,0,0,0.1786,0.1786,0.1782,0.1783,0.1783,0.1792,0.1782,0.1782,0.1798,0.1799,0.1792,0.1789,0.177,0.1775,0.1773,0.1787,0.1759,0.1772,0.1774,0.1776,0.1813,0.1818,0.1822,0,0,0,0,0,0.1786,0.1778,0.1781,0.1781,0.1779,0.1793,0.1793,0.1793,0.1799,0.181,0.1805,0.179,0.1785,0.1775,0.1772,0.1786,0.1772,0.1774,0.1776,0.1811,0.1817,0.1822,0,0,0,0,0,0,0.1769,0.1777,0.1781,0.1774,0.1791,0.1794,0.18,0.1807,0.1812,0.1812,0.1798,0.1796,0.1807,0.1794,0.1784,0.1797,0.1777,0.1779,0.1805,0.1811,0.1815,0.1824,0.1758,0,0,0,0,0,0.1766,0.1775,0.1781,0.1784,0.1791,0.1803,0.1808,0.1811,0.1816,0.182,0.1816,0.1811,0.1811,0.1809,0.1803,0.1808,0.1809,0.1817,0.1822,0.1826,0.1832,0.1856,0.1864,0.1784,0.1784,0.1784,0,0,0.1764,0.177,0.1774,0.1783,0.1796,0.1803,0.1807,0.1823,0.1832,0.1816,0.1828,0.1827,0.1817,0.1822,0.1827,0.1814,0.1849,0.1829,0.1832,0.1836,0.1859,0.1867,0.1874,0.1785,0.1785,0.1785,0,0,0.1758,0.177,0.177,0.1786,0.1803,0.1813,0.1825,0.1837,0.1849,0.186,0.1854,0.1867,0.1861,0.1859,0.1856,0.1885,0.1875,0.1885,0.1911,0.1935,0.1941,0.1947,0.1956,0.1963,0.1884,0.1884,0.1884,0,0.1754,0.1754,0.1774,0.1778,0.1791,0.1822,0.1826,0.1844,0.1857,0.1864,0.1869,0.1881,0.1879,0.189,0.1904,0.1896,0.1904,0.1889,0.1941,0.1947,0.1952,0.196,0.1967,0.1886,0.1886,0.1886,0.1886,0,0.1735,0.1749,0.1758,0.1777,0.1792,0.181,0.1833,0.1851,0.1874,0.1885,0.1911,0.1918,0.1924,0.1932,0.1928,0.1965,0.1955,0.1946,0.1927,0.1963,0.1968,0.1975,0.1889,0.1889,0.1888,0.1888,0,0,0.1706,0.1736,0.1747,0.1753,0.1794,0.1801,0.1831,0.1857,0.1872,0.1902,0.1925,0.1949,0.1964,0.1965,0.1969,0.1998,0.2048,0.1995,0.1995,0.2003,0.2095,0.2029,0.2029,0.2051,0.2052,0.2054,0.2082,0,0.1694,0.1697,0.1721,0.1742,0.1746,0.1789,0.1814,0.184,0.1873,0.1903,0.1938,0.1963,0.1974,0.1987,0.202,0.2043,0.2067,0.2041,0.2059,0.206,0.1996,0.2035,0.1856,0.1861,0.2088,0.2089,0.2089,0,0.1663,0.1675,0.1683,0.172,0.1727,0.1745,0.1787,0.1813,0.1867,0.1894,0.1935,0.1965,0.202,0.2025,0.209,0.2074,0.2091,0.2109,0.211,0.2039,0.2005,0.1863,0.1864,0.21,0.2099,0.2098,0.2097,0,0.1619,0.165,0.1658,0.1671,0.1713,0.1729,0.1758,0.1806,0.1831,0.1897,0.1925,0.1984,0.2023,0.2068,0.2115,0.2109,0.218,0.2166,0.2118,0.2113,0.1959,0.1938,0.2209,0.2209,0.2209,0.2209,0.2208,0,0.1591,0.16,0.1638,0.1645,0.1655,0.1696,0.1721,0.1758,0.1819,0.185,0.1922,0.1957,0.2041,0.209,0.2125,0.2142,0.2185,0.2132,0.2121,0.1967,0.1947,0.215,0.2143,0.221,0.2209,0.2209,0.2209,0,0.154,0.1571,0.1576,0.1621,0.1635,0.164,0.1698,0.1713,0.1785,0.1832,0.186,0.195,0.2015,0.2079,0.215,0.214,0.217,0.216,0.1969,0.1935,0.2083,0.2078,0.2109,0.2107,0.2105,0.2104,0.2103,0,0.1512,0.1508,0.1547,0.155,0.1574,0.1597,0.1614,0.1687,0.1712,0.1819,0.1837,0.1924,0.1965,0.2039,0.2047,0.2078,0.2138,0.1912,0.1865,0.2089,0.2076,0.2073,0.207,0.1677,0.1672,0.1668,0.1665,0,0.1455,0.1474,0.1482,0.1493,0.1509,0.1521,0.156,0.1574,0.1665,0.1707,0.1769,0.1816,0.1889,0.1838,0.1875,0.1868,0.1894,0.1835,0.2124,0.1729,0.1684,0.167,0.1681,0.1632,0.1635,0.1638,0.164,0.1641,0.1413,0.1404,0.1423,0.1423,0.1437,0.1444,0.144,0.1483,0.1512,0.1567,0.1654,0.1672,0.1693,0.1666,0.1622,0.1586,0.1723,0.1635,0.1646,0.166,0.1605,0.1559,0.1473,0.1475,0.1478,0.1479,0.1481,0,0.1347,0.1353,0.1351,0.1352,0.1336,0.1379,0.1397,0.1381,0.1384,0.1443,0.1484,0.1375,0.1342,0.1376,0.1271,0.1265,0.125,0.1205,0.1167,0.1201,0.1231,0.1153,0.0902,0.09,0.0898,0.0897,0,0,0.1319,0.1298,0.1297,0.1255,0.1259,0.1235,0.1235,0.1216,0.1235,0.1204,0.1199,0.1315,0.1348,0.1125,0.1077,0.0973,0.1084,0.093,0.1394,0.1384,0.1412,0.1475,0.1393,0,0,0,0,0]},{"header":{"parameterUnit":"m.s-1","parameterCategory":2,"la1":30.2991,"la2":30.254,"lo1":-89.0895,"lo2":-89.0444,"dy":0.0017,"dx":0.0017,"nx":28,"ny":28,"refTime":"2024-03-30T03:00:00:Z","depth":"2","parameterNumber":3,"parameterNumberName":"V-component_of_CURRENTS"},"data":[0,0,0,0,0,0,0,0,0,0,0,0,0,0,0,0,0,0,0,0,0,0,0,0,0,0,0,0,0,0,0,0,0,0,0,0,0,0,0,0,0,0,0,0,0,0,0,0,0,0,0,0,0,0,0,0,0,0,-0.0011,-0.0011,0,-0.0005,-0.0005,-0.0005,-0.0003,-0.0003,-0.0003,-0.0003,-0.0018,-0.0019,-0.0019,0,0,0,0,0,0,0,0,0,0,0,0,0,-0.003,-0.0029,-0.0011,-0.0011,-0.001,-0.0005,-0.0005,-0.0005,-0.0003,-0.0003,-0.0003,-0.0003,-0.0018,-0.0018,-0.0019,0,0,0,0,0,0,0,0,0,0,0,0,0,-0.0022,-0.0029,-0.0011,-0.0009,-0.0009,-0.0005,-0.0005,-0.0005,-0.0003,-0.0003,-0.0003,-0.0003,-0.0018,-0.0018,-0.0019,-0.0022,0,0,-0.0021,-0.0021,0,0,0,0,0,0,0,0,-0.0023,-0.0022,-0.0009,-0.0009,-0.0009,-0.0005,-0.0017,-0.0012,-0.0003,-0.0005,-0.0003,-0.0003,-0.0015,-0.0016,-0.0015,-0.0023,-0.0023,-0.0021,-0.0021,-0.0021,-0.0022,0,0,0,0,0,0,0,-0.0023,-0.0022,-0.0008,-0.0009,-0.0009,-0.0012,-0.0011,-0.0016,-0.0011,-0.0005,-0.0005,-0.0004,-0.0016,-0.0014,-0.0015,-0.0024,-0.0021,-0.0021,-0.0022,-0.0022,-0.0029,-0.0029,0,0,0,0,0,0,-0.0023,-0.0022,-0.0009,-0.0008,-0.0016,-0.0011,-0.001,-0.0006,-0.001,-0.0011,-0.0004,-0.0004,-0.0013,-0.0015,-0.0016,-0.0006,-0.0021,-0.0022,-0.0022,-0.0029,-0.0029,-0.0028,0,0,0,0,0,0,-0.0024,-0.0022,-0.0009,-0.0015,-0.0014,-0.0011,-0.0006,-0.0006,-0.0001,-0.0009,-0.001,0.0001,-0.0013,-0.0015,-0.0016,-0.0008,-0.0022,-0.0023,-0.0029,-0.0029,-0.0029,0.0004,0,0,0,0,0,0,-0.0024,-0.0022,-0.002,-0.0015,-0.0014,0.0,-0.0006,-0.0006,-0.0,-0.0,-0.0005,-0.0007,-0.0014,-0.0015,-0.0017,-0.0009,-0.0023,-0.0029,-0.0029,-0.0029,0.0002,0.0005,0.0007,0,0,0,0,0,-0.0025,-0.0017,-0.002,-0.0018,-0.001,0.0001,0.0002,0.0003,-0.0,0.0007,0.0001,-0.0007,-0.0014,-0.0015,-0.0017,-0.0009,-0.0029,-0.0029,-0.0029,0.0001,0.0004,0.0007,0,0,0,0,0,0,-0.0021,-0.0016,-0.0019,-0.0009,-0.0004,0.0001,0.0007,0.0006,0.0007,0.0006,-0.0004,-0.0005,-0.0004,-0.0012,-0.0013,-0.0011,-0.0023,-0.0023,-0.0,0.0003,0.0005,0.0019,-0.0024,0,0,0,0,0,-0.002,-0.0013,-0.001,-0.0001,0.0002,0.0004,0.0007,0.0009,0.001,0.0011,0.0006,-0.0,-0.0004,-0.0005,-0.0011,-0.0009,-0.0015,-0.0006,-0.0003,-0.0001,0.0009,0.0008,0.0012,-0.0027,-0.0027,-0.0027,0,0,-0.0016,-0.0012,-0.0008,0.0,0.0004,0.0017,0.0006,0.0016,0.0027,0.0008,0.0019,0.0008,-0.0002,0.0001,0.0001,-0.0004,0.0004,-0.0001,0.0001,0.001,0.0009,0.0013,0.0016,-0.0027,-0.0027,-0.0027,0,0,0.0,-0.0001,0.0011,0.0018,0.0024,0.0027,0.0031,0.0036,0.0038,0.0045,0.0033,0.003,0.0024,0.0021,0.0018,0.003,0.0017,0.0024,0.005,0.0049,0.0052,0.0055,0.0045,0.0047,0.0026,0.0026,0.0026,0,0.0003,0.0022,0.0017,0.0031,0.0042,0.0035,0.0054,0.0055,0.0059,0.0063,0.0053,0.005,0.0037,0.0047,0.0048,0.0037,0.003,0.0041,0.0053,0.0056,0.0059,0.0048,0.0049,0.0028,0.0028,0.0027,0.0027,0,0.0029,0.0044,0.0054,0.007,0.0078,0.0095,0.0096,0.0102,0.01,0.01,0.0107,0.0091,0.0093,0.0083,0.0068,0.008,0.0066,0.0056,0.0048,0.0065,0.0051,0.0053,0.003,0.0029,0.0029,0.0029,0,0,0.0045,0.0067,0.0073,0.0089,0.0102,0.0116,0.013,0.0144,0.0161,0.0152,0.0175,0.0156,0.0148,0.0143,0.0125,0.0119,0.0121,0.0096,0.0095,0.0091,0.0113,0.0099,0.0099,0.0113,0.0114,0.0114,0.0094,0,0.0071,0.0105,0.0111,0.015,0.0169,0.0169,0.0188,0.0195,0.0197,0.0215,0.0197,0.021,0.0171,0.0177,0.0164,0.0136,0.0127,0.0127,0.0094,0.0093,0.0083,0.0101,0.0111,0.0094,0.0095,0.0095,0.0096,0,0.0102,0.0122,0.0161,0.0195,0.0204,0.0225,0.0256,0.0272,0.0283,0.0286,0.0288,0.0277,0.0271,0.0238,0.02,0.0201,0.0162,0.0133,0.0132,0.0112,0.0082,0.0079,0.0096,0.0097,0.0097,0.0097,0.0097,0,0.0124,0.0162,0.0195,0.0207,0.0239,0.0259,0.0278,0.0294,0.0319,0.0338,0.0361,0.0342,0.0349,0.0299,0.0234,0.022,0.0189,0.0164,0.0113,0.0111,0.0111,0.0108,0.0141,0.0141,0.0141,0.0141,0.0141,0,0.0155,0.0185,0.021,0.0231,0.0276,0.0288,0.0338,0.035,0.0384,0.0429,0.0406,0.0435,0.0366,0.0337,0.0263,0.0196,0.0212,0.0126,0.0111,0.012,0.0119,0.0115,0.0112,0.014,0.014,0.014,0.014,0,0.0176,0.0193,0.0234,0.0273,0.0289,0.0322,0.038,0.0416,0.0443,0.0504,0.0519,0.0512,0.0478,0.0399,0.0322,0.0244,0.0174,0.0144,0.0154,0.0141,0.0085,0.0084,0.0087,0.0087,0.0086,0.0086,0.0086,0,0.019,0.0211,0.0263,0.0292,0.0313,0.0364,0.0403,0.0442,0.0487,0.0553,0.0588,0.058,0.058,0.0458,0.0331,0.0211,0.0185,0.0125,0.01,0.0098,0.0083,0.0083,0.0082,0.0107,0.0106,0.0106,0.0106,0,0.0212,0.023,0.0264,0.0321,0.0369,0.0427,0.0488,0.0533,0.0594,0.0649,0.0712,0.072,0.0619,0.0504,0.0335,0.0245,0.0144,0.0119,0.0129,0.0118,0.0114,0.01,0.0099,0.0105,0.0106,0.0106,0.0106,0.0106,0.0229,0.0254,0.0298,0.0354,0.0411,0.0486,0.0543,0.0615,0.0699,0.079,0.0791,0.081,0.067,0.0465,0.0311,0.0147,0.0154,0.008,0.0081,0.0082,0.0088,0.0083,0.0069,0.0069,0.0069,0.0069,0.0069,0,0.0246,0.0277,0.0328,0.0399,0.046,0.0494,0.0597,0.066,0.0766,0.0841,0.0895,0.077,0.0645,0.0484,0.025,0.0101,0.0087,0.0043,0.0059,0.0061,0.0063,0.0067,0.0043,0.0043,0.0042,0.0042,0,0,0.0257,0.0301,0.0326,0.0423,0.0481,0.0577,0.0642,0.0739,0.0814,0.0883,0.09,0.0902,0.0707,0.0525,0.0326,0.019,0.0156,0.0156,0.0193,0.0238,0.0242,0.0101,0.0113,0,0,0,0,0]}],[{"header":{"parameterUnit":"m.s-1","parameterCategory":2,"la1":30.2991,"la2":30.254,"lo1":-89.0895,"lo2":-89.0444,"dy":0.0017,"dx":0.0017,"nx":28,"ny":28,"refTime":"2024-03-30T03:00:00:Z","depth":"4","parameterNumber":2,"parameterNumberName":"U-component_of_CURRENTS"},"data":[0,0,0,0,0,0,0,0,0,0,0,0,0,0,0,0,0,0,0,0,0,0,0,0,0,0,0,0,0,0,0,0,0,0,0,0,0,0,0,0,0,0,0,0,0,0,0,0,0,0,0,0,0,0,0,0,0,0,0.0895,0.0896,0,0.0943,0.0944,0.0944,0.0985,0.0986,0.0986,0.0987,0.1084,0.1085,0.1087,0,0,0,0,0,0,0,0,0,0,0,0,0,0.0831,0.0831,0.0895,0.0896,0.0896,0.0943,0.0944,0.0944,0.0985,0.0986,0.0986,0.0987,0.1083,0.1085,0.1088,0,0,0,0,0,0,0,0,0,0,0,0,0,0.0864,0.0832,0.0895,0.0924,0.0927,0.0943,0.0944,0.0944,0.0985,0.0986,0.0987,0.0988,0.1082,0.1085,0.1088,0.1086,0,0,0.1097,0.1098,0,0,0,0,0,0,0,0,0.0862,0.0866,0.0919,0.0922,0.0926,0.0961,0.0957,0.0995,0.0984,0.096,0.0987,0.0988,0.1048,0.1054,0.1056,0.109,0.1095,0.1097,0.1099,0.11,0.1101,0,0,0,0,0,0,0,0.086,0.0864,0.0911,0.092,0.0924,0.0933,0.0939,0.0964,0.0997,0.0962,0.0966,0.0975,0.105,0.1053,0.1059,0.1096,0.1097,0.11,0.1101,0.1103,0.1207,0.1207,0,0,0,0,0,0,0.0858,0.0862,0.091,0.0913,0.0899,0.0934,0.094,0.0947,0.0996,0.1004,0.0974,0.0977,0.1048,0.1056,0.1063,0.1133,0.11,0.1103,0.1105,0.1206,0.1207,0.1208,0,0,0,0,0,0,0.0857,0.0862,0.0908,0.0891,0.0898,0.0934,0.0941,0.0947,0.0979,0.1005,0.1014,0.1003,0.1049,0.1059,0.1108,0.1134,0.1104,0.1107,0.1204,0.1206,0.1207,0.1228,0,0,0,0,0,0,0.0855,0.0861,0.0874,0.0891,0.0899,0.0935,0.0941,0.0948,0.0983,0.0987,0.1032,0.104,0.1051,0.1104,0.1111,0.1138,0.1109,0.1203,0.1205,0.1207,0.1226,0.123,0.1234,0,0,0,0,0,0.0852,0.0863,0.0874,0.088,0.0912,0.0936,0.0941,0.0968,0.0983,0.0999,0.1031,0.1041,0.1121,0.1107,0.1115,0.1144,0.1202,0.1204,0.1207,0.1225,0.123,0.1234,0,0,0,0,0,0,0.0846,0.0869,0.0881,0.09,0.0925,0.0944,0.0965,0.0982,0.1017,0.1032,0.1054,0.1064,0.1117,0.1127,0.1111,0.1179,0.1163,0.1167,0.1174,0.1179,0.1182,0.1182,0.1112,0,0,0,0,0,0.0848,0.0862,0.0887,0.0905,0.0921,0.0947,0.0965,0.0984,0.1013,0.1031,0.1059,0.1093,0.1127,0.1151,0.1177,0.1215,0.122,0.1239,0.1243,0.1246,0.1251,0.1277,0.1283,0.1215,0.1215,0.1215,0,0,0.0849,0.0866,0.0874,0.0905,0.0928,0.0949,0.0961,0.0995,0.1017,0.1036,0.1081,0.111,0.114,0.1182,0.1206,0.1198,0.1268,0.1249,0.1251,0.1255,0.128,0.1286,0.1292,0.1217,0.1217,0.1216,0,0,0.0854,0.0878,0.0891,0.0914,0.0954,0.0967,0.0984,0.1017,0.1041,0.1082,0.1104,0.1148,0.1195,0.1219,0.1238,0.1279,0.1286,0.1293,0.1315,0.134,0.1345,0.135,0.1361,0.1367,0.1295,0.1296,0.1296,0,0.086,0.0876,0.09,0.0923,0.0942,0.0978,0.0998,0.1025,0.107,0.1094,0.1103,0.1184,0.121,0.1263,0.128,0.1288,0.13,0.1294,0.1344,0.1349,0.1354,0.1364,0.137,0.1297,0.1297,0.1297,0.1296,0,0.0868,0.0893,0.0907,0.0941,0.0964,0.0991,0.1026,0.106,0.1094,0.112,0.1186,0.122,0.127,0.1286,0.1299,0.1353,0.1349,0.1344,0.133,0.1362,0.137,0.1377,0.1299,0.1298,0.1298,0.1297,0,0,0.0858,0.0901,0.0911,0.0929,0.0977,0.0996,0.1038,0.1083,0.1121,0.1169,0.1217,0.1276,0.1306,0.1329,0.1355,0.138,0.1424,0.1383,0.1384,0.1389,0.1476,0.1374,0.137,0.1431,0.1433,0.1434,0.1466,0,0.0863,0.0895,0.0917,0.0953,0.0973,0.1016,0.1049,0.1098,0.1144,0.12,0.1252,0.1311,0.132,0.1358,0.1385,0.1422,0.1442,0.1415,0.1448,0.1449,0.1351,0.1374,0.1438,0.1471,0.1472,0.1473,0.1474,0,0.0866,0.0887,0.0917,0.0961,0.0976,0.1005,0.1069,0.1106,0.1187,0.1227,0.1293,0.1338,0.1406,0.1401,0.1469,0.1456,0.147,0.1485,0.1486,0.1387,0.1358,0.1434,0.1485,0.1484,0.1483,0.1482,0.1482,0,0.0839,0.0889,0.0909,0.0926,0.0981,0.1012,0.105,0.1123,0.1165,0.1259,0.1306,0.1378,0.1433,0.1466,0.1507,0.1498,0.1565,0.155,0.1466,0.1459,0.1532,0.1526,0.1585,0.1585,0.1585,0.1585,0.1584,0,0.0826,0.0849,0.0907,0.0919,0.0959,0.1006,0.1062,0.1113,0.1194,0.1245,0.1328,0.1376,0.1455,0.1504,0.1522,0.1512,0.1577,0.1472,0.1461,0.1539,0.1534,0.1536,0.1529,0.1586,0.1586,0.1585,0.1585,0,0.0791,0.0828,0.0859,0.0922,0.0948,0.0982,0.1065,0.1103,0.119,0.1261,0.1298,0.1395,0.1452,0.1509,0.1564,0.1521,0.1527,0.1505,0.1588,0.1582,0.1399,0.1394,0.1405,0.1402,0.1399,0.1397,0.1395,0,0.0767,0.0783,0.0854,0.0879,0.0913,0.0972,0.1011,0.1096,0.1134,0.1256,0.128,0.1375,0.1429,0.1424,0.1483,0.1497,0.1481,0.1466,0.1425,0.1392,0.1382,0.1381,0.138,0.1391,0.139,0.1389,0.1388,0,0.0727,0.0766,0.0794,0.0846,0.0892,0.0928,0.0989,0.1007,0.1101,0.1195,0.1234,0.1269,0.1325,0.1358,0.1382,0.139,0.1465,0.1436,0.1441,0.1403,0.1374,0.1367,0.1369,0.1379,0.138,0.1381,0.1381,0,0.0704,0.0718,0.0767,0.0805,0.0854,0.0865,0.0902,0.0942,0.0988,0.1115,0.1123,0.1222,0.1307,0.1302,0.1326,0.1325,0.1299,0.1246,0.1261,0.1272,0.1213,0.1156,0.1086,0,0,0,0,0,0.0679,0.069,0.0721,0.0749,0.079,0.0816,0.0879,0.0916,0.1006,0.1003,0.1058,0.1105,0.114,0.1187,0.116,0.1262,0.1303,0.1223,0.1248,0.1325,0.1336,0.1278,0,0,0,0,0,0,0.0664,0.0694,0.0702,0.0694,0.0699,0.073,0.0763,0.0822,0.0821,0.0922,0.0949,0.1028,0.1082,0.1147,0.1138,0.1152,0.114,0.1284,0.128,0.1318,0.1328,0.1337,0.1282,0,0,0,0,0]},{"header":{"parameterUnit":"m.s-1","parameterCategory":2,"la1":30.2991,"la2":30.254,"lo1":-89.0895,"lo2":-89.0444,"dy":0.0017,"dx":0.0017,"nx":28,"ny":28,"refTime":"2024-03-30T03:00:00:Z","depth":"4","parameterNumber":3,"parameterNumberName":"V-component_of_CURRENTS"},"data":[0,0,0,0,0,0,0,0,0,0,0,0,0,0,0,0,0,0,0,0,0,0,0,0,0,0,0,0,0,0,0,0,0,0,0,0,0,0,0,0,0,0,0,0,0,0,0,0,0,0,0,0,0,0,0,0,0,0,-0.004,-0.0041,0,-0.0054,-0.0054,-0.0054,-0.0062,-0.0062,-0.0062,-0.0062,-0.0086,-0.0087,-0.0087,0,0,0,0,0,0,0,0,0,0,0,0,0,-0.003,-0.003,-0.004,-0.0041,-0.0041,-0.0054,-0.0054,-0.0054,-0.0062,-0.0062,-0.0062,-0.0062,-0.0086,-0.0087,-0.0087,0,0,0,0,0,0,0,0,0,0,0,0,0,-0.0038,-0.003,-0.004,-0.0046,-0.0047,-0.0054,-0.0054,-0.0054,-0.0062,-0.0062,-0.0062,-0.0063,-0.0086,-0.0087,-0.0088,-0.0092,0,0,-0.009,-0.0091,0,0,0,0,0,0,0,0,-0.0038,-0.0039,-0.0045,-0.0046,-0.0047,-0.0057,-0.0059,-0.0068,-0.0062,-0.0056,-0.0062,-0.0063,-0.0077,-0.0079,-0.0081,-0.0093,-0.0094,-0.009,-0.0091,-0.0091,-0.0091,0,0,0,0,0,0,0,-0.0037,-0.0038,-0.0046,-0.0046,-0.0046,-0.0052,-0.0053,-0.0061,-0.0066,-0.0057,-0.0058,-0.0059,-0.0078,-0.008,-0.0082,-0.0094,-0.009,-0.0091,-0.0092,-0.0092,-0.0113,-0.0113,0,0,0,0,0,0,-0.0035,-0.0038,-0.0045,-0.0046,-0.0043,-0.0052,-0.0053,-0.0053,-0.0066,-0.0068,-0.0059,-0.006,-0.0079,-0.0081,-0.0083,-0.0086,-0.0091,-0.0092,-0.0093,-0.0113,-0.0113,-0.0113,0,0,0,0,0,0,-0.0035,-0.0036,-0.0045,-0.0042,-0.0044,-0.0052,-0.0052,-0.0054,-0.0057,-0.0068,-0.007,-0.0062,-0.0079,-0.0081,-0.009,-0.0087,-0.0092,-0.0093,-0.0113,-0.0113,-0.0113,-0.0093,0,0,0,0,0,0,-0.0035,-0.0036,-0.0036,-0.0042,-0.0044,-0.0047,-0.0052,-0.0054,-0.0058,-0.0059,-0.0071,-0.0073,-0.0079,-0.0089,-0.0091,-0.0088,-0.0094,-0.0113,-0.0113,-0.0113,-0.0094,-0.0093,-0.0092,0,0,0,0,0,-0.0034,-0.0033,-0.0036,-0.0037,-0.0044,-0.0047,-0.0048,-0.0054,-0.0058,-0.0058,-0.0067,-0.0072,-0.0091,-0.009,-0.0092,-0.0089,-0.0113,-0.0113,-0.0113,-0.0094,-0.0093,-0.0092,0,0,0,0,0,0,-0.0027,-0.0034,-0.0037,-0.0038,-0.0042,-0.0049,-0.005,-0.0055,-0.0062,-0.0063,-0.0074,-0.0077,-0.0083,-0.009,-0.0089,-0.0096,-0.0102,-0.0103,-0.0087,-0.0086,-0.0085,-0.0076,-0.0095,0,0,0,0,0,-0.0026,-0.0027,-0.0034,-0.0034,-0.0036,-0.0044,-0.0046,-0.005,-0.0056,-0.006,-0.0068,-0.0077,-0.0085,-0.0089,-0.0097,-0.0101,-0.0107,-0.0101,-0.01,-0.0099,-0.0094,-0.0102,-0.01,-0.0113,-0.0113,-0.0113,0,0,-0.0023,-0.0027,-0.0028,-0.0033,-0.0037,-0.0034,-0.0045,-0.0047,-0.0045,-0.0061,-0.0063,-0.0074,-0.0086,-0.009,-0.0093,-0.0095,-0.0099,-0.0099,-0.0098,-0.0094,-0.0101,-0.01,-0.0099,-0.0113,-0.0113,-0.0113,0,0,-0.0015,-0.0022,-0.0019,-0.0021,-0.0026,-0.0029,-0.003,-0.0036,-0.004,-0.0044,-0.0055,-0.0063,-0.0076,-0.0081,-0.0086,-0.0083,-0.0093,-0.0089,-0.0074,-0.0082,-0.008,-0.0079,-0.0085,-0.0084,-0.0087,-0.0087,-0.0087,0,-0.0013,-0.0007,-0.0018,-0.0014,-0.0012,-0.0025,-0.0017,-0.0023,-0.0032,-0.0034,-0.0042,-0.0057,-0.0069,-0.0071,-0.0071,-0.008,-0.0086,-0.0078,-0.0079,-0.0078,-0.0078,-0.0084,-0.0083,-0.0086,-0.0086,-0.0086,-0.0086,0,0.0,0.0004,0.0006,0.0008,0.0009,0.0013,0.0006,0.0002,-0.0005,-0.0011,-0.0018,-0.0034,-0.004,-0.0049,-0.006,-0.0061,-0.0069,-0.0077,-0.0081,-0.0075,-0.0082,-0.0082,-0.0085,-0.0085,-0.0085,-0.0086,0,0,0.0009,0.0014,0.0016,0.0024,0.0023,0.0026,0.0028,0.0027,0.0031,0.0016,0.0023,0.0001,-0.0008,-0.0014,-0.003,-0.0041,-0.0045,-0.0057,-0.0058,-0.0058,-0.0061,-0.0059,-0.006,-0.0056,-0.0056,-0.0056,-0.0067,0,0.0023,0.0038,0.0039,0.0057,0.0065,0.0058,0.0062,0.0058,0.0052,0.0053,0.0034,0.0034,0.0005,0.0006,-0.001,-0.0034,-0.0045,-0.0041,-0.007,-0.007,-0.0067,-0.006,-0.0056,-0.0068,-0.0068,-0.0068,-0.0068,0,0.0039,0.0048,0.0068,0.0083,0.0086,0.0096,0.0104,0.0108,0.0101,0.0098,0.009,0.0076,0.0063,0.0039,0.0,0.0003,-0.0026,-0.0049,-0.005,-0.0054,-0.0069,-0.0075,-0.0068,-0.0068,-0.0068,-0.0068,-0.0068,0,0.0053,0.0071,0.009,0.0095,0.0106,0.0115,0.0123,0.0121,0.0132,0.0132,0.0146,0.0117,0.012,0.0073,0.0023,0.0013,-0.0019,-0.0038,-0.0064,-0.0064,-0.0071,-0.0072,-0.0063,-0.0063,-0.0063,-0.0063,-0.0063,0,0.0069,0.0085,0.0099,0.0109,0.0133,0.0136,0.0161,0.0161,0.0176,0.0202,0.0175,0.019,0.0128,0.0102,0.0042,-0.0007,-0.0003,-0.0057,-0.0065,-0.0063,-0.0063,-0.0072,-0.0072,-0.0064,-0.0063,-0.0063,-0.0063,0,0.008,0.0089,0.0111,0.013,0.014,0.0158,0.0193,0.0212,0.0223,0.026,0.0268,0.0253,0.0221,0.0155,0.0088,0.0032,-0.0025,-0.0044,-0.0028,-0.0037,-0.0072,-0.0072,-0.0074,-0.0074,-0.0074,-0.0074,-0.0074,0,0.0084,0.0096,0.0127,0.0146,0.0157,0.0187,0.0211,0.0233,0.0261,0.03,0.0323,0.031,0.0289,0.0204,0.012,0.0015,-0.0007,-0.0041,-0.0068,-0.0064,-0.0072,-0.0072,-0.0072,-0.0074,-0.0074,-0.0074,-0.0074,0,0.0091,0.0102,0.0121,0.0161,0.0193,0.0232,0.0271,0.0299,0.0335,0.0349,0.0379,0.0339,0.0307,0.0219,0.0144,0.0062,-0.0024,-0.0042,-0.0043,-0.0069,-0.0064,-0.0072,-0.0072,-0.0074,-0.0074,-0.0074,-0.0074,0,0.0094,0.0109,0.0138,0.0177,0.022,0.0271,0.0289,0.0333,0.0364,0.0406,0.0414,0.0379,0.0355,0.0245,0.0171,0.0096,0.0065,0.0022,0.0017,0.0015,0.0036,0.0055,0.0081,0,0,0,0,0,0.0097,0.0119,0.0153,0.0201,0.0247,0.0277,0.0329,0.0347,0.0386,0.0415,0.0419,0.039,0.03,0.0257,0.0184,0.0152,0.0039,0.006,-0.0017,-0.0074,-0.0074,-0.0066,0,0,0,0,0,0,0.0101,0.013,0.0152,0.0219,0.0256,0.0312,0.035,0.0375,0.0389,0.0415,0.037,0.0358,0.0266,0.0346,0.0181,0.0158,0.0094,0.002,0.0018,-0.0074,-0.0074,-0.0074,-0.0065,0,0,0,0,0]}]]